Regional Weather Roundup
Issued by NWS

Home | Current Version | Previous Version | Graphics & Text | Print | Product List | Glossary Off
Versions: 1 2 3 4 5 6 7 8 9 10 11 12 13 14 15 16 17 18 19 20 21 22 23 24 25 26 27 28 29 30 31 32 33 34 35 36 37 38 39 40 41 42 43 44 45 46 47 48 49 50

000
ASUS43 KTOP 271108
RWRKS

WEATHER ROUNDUP FOR KANSAS
NATIONAL WEATHER SERVICE GOODLAND KS
600 AM CDT MON MAR 27 2017

NOTE:  "FAIR" INDICATES FEW OR NO CLOUDS BELOW 12,000 FEET WITH NO
SIGNIFICANT WEATHER AND/OR OBSTRUCTIONS TO VISIBILITY.

KSZ001>006-013>018-027>032-041>047-271200-
NORTHWEST KANSAS

CITY           SKY/WX    TMP DP  RH WIND       PRES   REMARKS
GOODLAND       CLEAR     33  32  96 W8        29.92S
HAYS             N/A     45  44  97 NW5       29.95R
HILL CITY      CLEAR     33  33 100 SW5       29.96R FOG
RUSSELL        CLOUDY    46  44  93 NW8       29.92R
$$

KSZ061>065-074>080-084>089-271200-
SOUTHWEST KANSAS

CITY           SKY/WX    TMP DP  RH WIND       PRES   REMARKS
DODGE CITY     PTCLDY    36  36 100 NW9       29.93S FOG
ELKHART          N/A     33  27  79 W7          N/A
GARDEN CITY    CLEAR     34  32  92 NW9       29.93F
GREAT BEND     CLOUDY    46  44  93 NW9       29.93R
LIBERAL        CLEAR     36  28  75 NW10      29.94F WCI  28
PRATT          CLOUDY    43  41  94 N14       29.92R
$$

KSZ066>073-081>083-090>101-271200-
SOUTHEAST KANSAS

CITY           SKY/WX    TMP DP  RH WIND       PRES   REMARKS
CHANUTE        CLOUDY    50  47  89 N9        29.81R
COFFEYVILLE    CLOUDY    52  51  97 NW10      29.81R
HUTCHINSON     CLOUDY    47  45  93 N13       29.89R
MEDICINE LODGE   N/A     47  44  90 NW8       29.90R
NEWTON         CLOUDY    45  44  97 N14       29.88R
PARSONS        CLOUDY    51  49  92 N10       29.81R
WICHITA INTL   CLOUDY    48  46  93 N14       29.87R
WICHITA JABRA  CLOUDY    47  45  93 N13       29.87R
WICHITA MCCONL CLOUDY    47  45  91 N14G20    29.86R
WINFIELD       CLOUDY    49  47  93 N10       29.85S
$$

KSZ007>012-019>026-033>040-048>060-102>105-271200-
NORTHEAST KANSAS

CITY           SKY/WX    TMP DP  RH WIND       PRES   REMARKS
CONCORDIA      CLOUDY    45  44  97 NE8       29.90F
EMPORIA        LGT RAIN  45  45 100 N10       29.85R FOG
LAWRENCE       CLOUDY    46  46 100 NW8       29.86S FOG
MANHATTAN      LGT RAIN  46  45  96 N5        29.90S FOG
MARYSVILLE     CLOUDY    45  43  93 N8        29.92R
OLATHE IND     CLOUDY    47  45  93 N10       29.84R
OLATHE EXE     CLOUDY    46  46 100 NE14      29.83R
SALINA         CLOUDY    47  45  93 N12       29.91R
TOPEKA BILLARD RAIN      46  46 100 N7        29.88R FOG
TOPEKA FORBES  LGT RAIN  46  45  96 N9        29.87R FOG
$$




USA.gov is the U.S. government's official web portal to all federal, state and local government web resources and services.